Time,TemperatureF,DewpointF,PressureIn,WindDirection,WindDirectionDegrees,WindSpeedMPH,WindSpeedGustMPH,Humidity,HourlyPrecipIn,Conditions,Clouds,dailyrainin,SoftwareType,DateUTC
2018-01-20 00:02:00,27.8,20.9,29.87,ESE,104,0.0,0.0,75,0.00,,,0.00,WeatherCatV2.44B2,2018-01-20 05:02:00,
2018-01-20 00:07:00,28.0,21.1,29.86,ESE,112,1.0,1.0,75,0.00,,,0.00,WeatherCatV2.44B2,2018-01-20 05:07:00,
2018-01-20 00:12:00,28.1,20.9,29.86,ENE,74,0.0,2.0,74,0.00,,,0.00,WeatherCatV2.44B2,2018-01-20 05:12:00,
2018-01-20 00:17:00,28.1,20.9,29.86,ENE,71,0.0,0.0,74,0.00,,,0.00,WeatherCatV2.44B2,2018-01-20 05:17:00,
2018-01-20 00:22:00,28.0,20.8,29.86,East,88,0.0,0.0,74,0.00,,,0.00,WeatherCatV2.44B2,2018-01-20 05:22:00,
2018-01-20 00:27:00,28.0,20.8,29.86,East,87,0.0,0.0,74,0.00,,,0.00,WeatherCatV2.44B2,2018-01-20 05:27:00,
2018-01-20 00:32:00,27.9,20.7,29.86,East,86,0.0,1.0,74,0.00,,,0.00,WeatherCatV2.44B2,2018-01-20 05:32:00,
2018-01-20 00:37:00,28.0,20.8,29.85,ENE,72,0.0,2.0,74,0.00,,,0.00,WeatherCatV2.44B2,2018-01-20 05:37:00,
2018-01-20 00:42:00,28.2,20.7,29.84,ESE,110,1.0,5.0,73,0.00,,,0.00,WeatherCatV2.44B2,2018-01-20 05:42:00,
2018-01-20 00:47:00,28.3,20.8,29.84,ESE,105,0.0,4.0,73,0.00,,,0.00,WeatherCatV2.44B2,2018-01-20 05:47:00,
2018-01-20 00:52:00,28.3,20.5,29.83,North,359,0.0,2.0,72,0.00,,,0.00,WeatherCatV2.44B2,2018-01-20 05:52:00,
2018-01-20 00:57:00,28.5,20.6,29.83,East,88,1.0,1.0,72,0.00,,,0.00,WeatherCatV2.44B2,2018-01-20 05:57:00,
2018-01-20 01:02:00,28.6,20.7,29.83,East,87,0.0,0.0,72,0.00,,,0.00,WeatherCatV2.44B2,2018-01-20 06:02:00,
2018-01-20 01:07:00,28.6,20.7,29.83,SE,143,0.0,1.0,72,0.00,,,0.00,WeatherCatV2.44B2,2018-01-20 06:07:00,
2018-01-20 01:12:00,28.7,20.8,29.82,East,101,0.0,1.0,72,0.00,,,0.00,WeatherCatV2.44B2,2018-01-20 06:12:00,
2018-01-20 01:17:00,28.7,20.5,29.82,East,79,0.0,3.0,71,0.00,,,0.00,WeatherCatV2.44B2,2018-01-20 06:17:00,
2018-01-20 01:22:00,28.8,20.9,29.82,East,82,0.0,2.0,72,0.00,,,0.00,WeatherCatV2.44B2,2018-01-20 06:22:00,
2018-01-20 01:27:00,28.9,20.7,29.83,East,95,0.0,0.0,71,0.00,,,0.00,WeatherCatV2.44B2,2018-01-20 06:27:00,
2018-01-20 01:32:00,29.0,20.8,29.82,NNE,20,0.0,1.0,71,0.00,,,0.00,WeatherCatV2.44B2,2018-01-20 06:32:00,
2018-01-20 01:37:00,29.0,20.8,29.82,South,188,1.0,4.0,71,0.00,,,0.00,WeatherCatV2.44B2,2018-01-20 06:37:00,
2018-01-20 01:42:00,29.1,20.6,29.82,NW,326,0.0,1.0,70,0.00,,,0.00,WeatherCatV2.44B2,2018-01-20 06:42:00,
2018-01-20 01:47:00,29.0,20.5,29.83,ENE,57,0.0,0.0,70,0.00,,,0.00,WeatherCatV2.44B2,2018-01-20 06:47:00,
2018-01-20 01:52:00,28.9,20.7,29.83,NNE,30,0.0,2.0,71,0.00,,,0.00,WeatherCatV2.44B2,2018-01-20 06:52:00,
2018-01-20 01:57:00,28.9,20.7,29.83,ENE,67,0.0,1.0,71,0.00,,,0.00,WeatherCatV2.44B2,2018-01-20 06:57:00,
2018-01-20 01:58:00,28.9,20.7,29.83,ESE,105,0.0,1.0,71,0.00,,,0.00,WeatherCatV2.44B2,2018-01-20 06:58:00,
2018-01-20 02:03:00,28.8,20.6,29.82,East,101,1.0,1.0,71,0.00,,,0.00,WeatherCatV2.44B2,2018-01-20 07:03:00,
2018-01-20 02:08:00,28.7,20.5,29.82,ESE,118,0.0,2.0,71,0.00,,,0.00,WeatherCatV2.44B2,2018-01-20 07:08:00,
2018-01-20 02:13:00,28.6,20.7,29.82,ESE,114,0.0,1.0,72,0.00,,,0.00,WeatherCatV2.44B2,2018-01-20 07:13:00,
2018-01-20 02:18:00,28.6,20.7,29.82,East,100,0.0,0.0,72,0.00,,,0.00,WeatherCatV2.44B2,2018-01-20 07:18:00,
2018-01-20 02:23:00,28.6,20.7,29.82,ESE,117,0.0,0.0,72,0.00,,,0.00,WeatherCatV2.44B2,2018-01-20 07:23:00,
2018-01-20 02:28:00,28.5,20.6,29.82,ESE,117,0.0,0.0,72,0.00,,,0.00,WeatherCatV2.44B2,2018-01-20 07:28:00,
2018-01-20 02:33:00,28.5,20.6,29.81,ESE,117,0.0,1.0,72,0.00,,,0.00,WeatherCatV2.44B2,2018-01-20 07:33:00,
2018-01-20 02:38:00,28.4,20.9,29.80,ESE,119,0.0,1.0,73,0.00,,,0.00,WeatherCatV2.44B2,2018-01-20 07:38:00,
2018-01-20 02:43:00,28.4,20.9,29.80,ESE,118,0.0,1.0,73,0.00,,,0.00,WeatherCatV2.44B2,2018-01-20 07:43:00,
2018-01-20 02:48:00,28.3,21.1,29.80,ESE,118,0.0,0.0,74,0.00,,,0.00,WeatherCatV2.44B2,2018-01-20 07:48:00,
2018-01-20 02:53:00,28.3,21.1,29.81,ESE,118,0.0,0.0,74,0.00,,,0.00,WeatherCatV2.44B2,2018-01-20 07:53:00,
2018-01-20 02:58:00,28.2,21.0,29.81,ESE,118,0.0,0.0,74,0.00,,,0.00,WeatherCatV2.44B2,2018-01-20 07:58:00,
2018-01-20 03:03:00,28.2,21.0,29.81,ESE,118,0.0,0.0,74,0.00,,,0.00,WeatherCatV2.44B2,2018-01-20 08:03:00,
2018-01-20 03:08:00,28.3,21.1,29.81,ESE,105,0.0,1.0,74,0.00,,,0.00,WeatherCatV2.44B2,2018-01-20 08:08:00,
2018-01-20 03:13:00,28.4,21.2,29.80,ESE,105,0.0,0.0,74,0.00,,,0.00,WeatherCatV2.44B2,2018-01-20 08:13:00,
2018-01-20 03:18:00,28.5,21.3,29.80,ESE,111,0.0,1.0,74,0.00,,,0.00,WeatherCatV2.44B2,2018-01-20 08:18:00,
2018-01-20 03:23:00,28.6,21.4,29.80,ESE,111,0.0,0.0,74,0.00,,,0.00,WeatherCatV2.44B2,2018-01-20 08:23:00,
2018-01-20 03:28:00,28.7,21.5,29.80,South,172,0.0,0.0,74,0.00,,,0.00,WeatherCatV2.44B2,2018-01-20 08:28:00,
2018-01-20 03:33:00,28.8,21.3,29.79,SE,129,0.0,0.0,73,0.00,,,0.00,WeatherCatV2.44B2,2018-01-20 08:33:00,
2018-01-20 03:38:00,28.8,21.3,29.80,SE,129,0.0,0.0,73,0.00,,,0.00,WeatherCatV2.44B2,2018-01-20 08:38:00,
2018-01-20 03:43:00,28.8,21.3,29.80,SE,129,0.0,1.0,73,0.00,,,0.00,WeatherCatV2.44B2,2018-01-20 08:43:00,
2018-01-20 03:48:00,28.8,21.6,29.79,SE,129,0.0,0.0,74,0.00,,,0.00,WeatherCatV2.44B2,2018-01-20 08:48:00,
2018-01-20 03:53:00,28.7,21.5,29.79,SE,129,0.0,0.0,74,0.00,,,0.00,WeatherCatV2.44B2,2018-01-20 08:53:00,
2018-01-20 03:58:00,28.6,21.4,29.78,ESE,108,0.0,1.0,74,0.00,,,0.00,WeatherCatV2.44B2,2018-01-20 08:58:00,
2018-01-20 04:03:00,28.7,21.5,29.77,ESE,108,0.0,1.0,74,0.00,,,0.00,WeatherCatV2.44B2,2018-01-20 09:03:00,
2018-01-20 04:08:00,28.8,21.6,29.76,ESE,108,0.0,1.0,74,0.00,,,0.00,WeatherCatV2.44B2,2018-01-20 09:08:00,
2018-01-20 04:13:00,28.9,21.7,29.76,East,93,0.0,1.0,74,0.00,,,0.00,WeatherCatV2.44B2,2018-01-20 09:13:00,
2018-01-20 04:18:00,29.0,21.8,29.75,East,101,0.0,1.0,74,0.00,,,0.00,WeatherCatV2.44B2,2018-01-20 09:18:00,
2018-01-20 04:23:00,29.0,21.8,29.74,East,84,1.0,1.0,74,0.00,,,0.00,WeatherCatV2.44B2,2018-01-20 09:23:00,
2018-01-20 04:28:00,29.1,21.9,29.75,East,79,0.0,1.0,74,0.00,,,0.00,WeatherCatV2.44B2,2018-01-20 09:28:00,
2018-01-20 04:33:00,29.3,21.7,29.75,ESE,112,0.0,1.0,73,0.00,,,0.00,WeatherCatV2.44B2,2018-01-20 09:33:00,
2018-01-20 04:38:00,29.5,21.9,29.75,SE,133,0.0,2.0,73,0.00,,,0.00,WeatherCatV2.44B2,2018-01-20 09:38:00,
2018-01-20 04:43:00,29.7,22.1,29.75,East,94,0.0,1.0,73,0.00,,,0.00,WeatherCatV2.44B2,2018-01-20 09:43:00,
2018-01-20 04:48:00,29.8,22.2,29.74,North,11,0.0,1.0,73,0.00,,,0.00,WeatherCatV2.44B2,2018-01-20 09:48:00,
2018-01-20 04:53:00,29.9,22.0,29.74,ESE,123,0.0,1.0,72,0.00,,,0.00,WeatherCatV2.44B2,2018-01-20 09:53:00,
2018-01-20 04:58:00,29.9,22.0,29.73,SE,124,0.0,3.0,72,0.00,,,0.00,WeatherCatV2.44B2,2018-01-20 09:58:00,
2018-01-20 05:03:00,30.0,22.1,29.73,ENE,76,1.0,2.0,72,0.00,,,0.00,WeatherCatV2.44B2,2018-01-20 10:03:00,